QPF
0.00 0.00 0.00 0.00 0.00 0.00 0.00 0.00 0.00 0.00 0.00 0.00 0.00 0.00 0.00 0.00 0.01 0.01 0.00 0.00 0.00 0.00 0.01 0.02 0.05 0.07 0.08 0.06 0.04 0.04 0.04 0.04 0.05 0.04 0.03 0.02 0.02 0.01 0.01 0.01 0.01 0.01 0.01 0.01 0.01 0.01 0.01 0.02 0.02
0.00 0.00 0.00 0.00 0.00 0.00 0.00 0.00 0.00 0.00 0.00 0.00 0.00 0.00 0.00 0.00 0.00 0.01 0.01 0.01 0.00 0.00 0.01 0.03 0.05 0.07 0.08 0.07 0.05 0.04 0.03 0.04 0.05 0.04 0.03 0.02 0.02 0.02 0.01 0.01 0.01 0.01 0.01 0.01 0.01 0.01 0.01 0.01 0.01
0.00 0.00 0.00 0.00 0.00 0.00 0.00 0.00 0.00 0.00 0.00 0.00 0.00 0.00 0.00 0.00 0.00 0.01 0.01 0.01 0.00 0.01 0.02 0.03 0.05 0.08 0.09 0.08 0.05 0.05 0.04 0.04 0.04 0.04 0.04 0.04 0.03 0.03 0.02 0.01 0.01 0.01 0.01 0.00 0.00 0.01 0.01 0.02 0.02
0.00 0.00 0.00 0.00 0.00 0.00 0.00 0.00 0.00 0.00 0.00 0.00 0.00 0.00 0.00 0.00 0.00 0.00 0.01 0.01 0.01 0.01 0.02 0.03 0.06 0.08 0.10 0.10 0.06 0.05 0.05 0.04 0.04 0.04 0.04 0.04 0.04 0.03 0.02 0.02 0.02 0.01 0.01 0.00 0.00 0.01 0.02 0.02 0.02
0.00 0.00 0.00 0.00 0.00 0.00 0.00 0.00 0.00 0.00 0.00 0.01 0.01 0.00 0.00 0.00 0.00 0.00 0.01 0.01 0.02 0.02 0.03 0.05 0.07 0.10 0.11 0.12 0.08 0.04 0.06 0.06 0.05 0.05 0.05 0.03 0.03 0.03 0.03 0.02 0.02 0.01 0.01 0.01 0.01 0.01 0.02 0.04 0.02
0.00 0.00 0.00 0.00 0.00 0.00 0.00 0.00 0.00 0.00 0.00 0.01 0.01 0.01 0.00 0.00 0.00 0.01 0.01 0.01 0.02 0.03 0.05 0.09 0.10 0.13 0.14 0.14 0.10 0.06 0.05 0.07 0.08 0.08 0.08 0.04 0.03 0.03 0.03 0.03 0.02 0.02 0.01 0.01 0.01 0.01 0.01 0.05 0.03
0.00 0.00 0.00 0.00 0.00 0.00 0.00 0.00 0.00 0.00 0.00 0.01 0.01 0.01 0.00 0.01 0.01 0.01 0.01 0.02 0.02 0.05 0.06 0.08 0.12 0.15 0.17 0.16 0.15 0.10 0.06 0.08 0.10 0.10 0.09 0.05 0.03 0.02 0.03 0.03 0.03 0.03 0.02 0.01 0.01 0.01 0.01 0.04 0.05
0.00 0.00 0.00 0.00 0.00 0.00 0.00 0.00 0.00 0.00 0.00 0.01 0.01 0.01 0.01 0.02 0.02 0.02 0.02 0.04 0.05 0.06 0.07 0.08 0.11 0.15 0.17 0.17 0.17 0.16 0.10 0.11 0.13 0.12 0.07 0.05 0.03 0.03 0.02 0.02 0.02 0.03 0.03 0.02 0.01 0.01 0.01 0.02 0.04
0.00 0.00 0.00 0.00 0.00 0.00 0.00 0.00 0.00 0.00 0.00 0.00 0.01 0.01 0.02 0.04 0.04 0.03 0.04 0.07 0.07 0.08 0.08 0.08 0.12 0.17 0.21 0.22 0.18 0.21 0.17 0.12 0.12 0.11 0.08 0.05 0.04 0.04 0.02 0.02 0.02 0.03 0.03 0.03 0.02 0.01 0.01 0.01 0.03
0.00 0.00 0.00 0.00 0.00 0.00 0.00 0.00 0.00 0.00 0.00 0.00 0.00 0.01 0.01 0.04 0.06 0.06 0.06 0.07 0.09 0.10 0.10 0.10 0.13 0.21 0.26 0.27 0.33 0.30 0.23 0.14 0.09 0.11 0.08 0.07 0.06 0.05 0.03 0.02 0.02 0.02 0.03 0.03 0.03 0.02 0.01 0.01 0.02
0.00 0.00 0.00 0.00 0.00 0.00 0.01 0.00 0.00 0.00 0.00 0.00 0.01 0.01 0.02 0.03 0.06 0.08 0.09 0.08 0.09 0.11 0.12 0.14 0.17 0.26 0.38 0.35 0.41 0.46 0.30 0.16 0.08 0.09 0.11 0.08 0.06 0.05 0.04 0.04 0.03 0.02 0.02 0.03 0.03 0.03 0.02 0.02 0.02
0.00 0.00 0.00 0.00 0.00 0.01 0.01 0.01 0.00 0.00 0.00 0.00 0.00 0.01 0.02 0.03 0.05 0.08 0.09 0.09 0.10 0.12 0.15 0.20 0.25 0.35 0.45 0.40 0.39 0.49 0.38 0.20 0.09 0.05 0.07 0.08 0.07 0.05 0.04 0.04 0.04 0.03 0.03 0.04 0.04 0.04 0.04 0.03 0.03
0.00 0.00 0.00 0.00 0.00 0.01 0.01 0.01 0.00 0.00 0.00 0.00 0.00 0.01 0.01 0.03 0.05 0.09 0.09 0.11 0.13 0.14 0.18 0.28 0.30 0.35 0.40 0.36 0.33 0.39 0.34 0.22 0.12 0.06 0.05 0.05 0.06 0.06 0.05 0.04 0.03 0.03 0.02 0.03 0.06 0.07 0.06 0.06 0.06
0.00 0.00 0.00 0.00 0.00 0.00 0.01 0.00 0.00 0.00 0.00 0.00 0.00 0.01 0.01 0.03 0.05 0.09 0.11 0.13 0.17 0.18 0.17 0.26 0.31 0.28 0.32 0.35 0.31 0.32 0.29 0.22 0.15 0.08 0.05 0.04 0.04 0.05 0.05 0.03 0.03 0.02 0.01 0.02 0.03 0.04 0.05 0.06 0.07
0.00 0.00 0.00 0.00 0.00 0.00 0.01 0.01 0.01 0.00 0.00 0.00 0.01 0.01 0.02 0.04 0.05 0.07 0.11 0.13 0.18 0.21 0.19 0.21 0.27 0.28 0.30 0.35 0.30 0.26 0.26 0.21 0.17 0.10 0.06 0.04 0.04 0.04 0.04 0.03 0.02 0.01 0.01 0.01 0.01 0.03 0.04 0.06 0.07
0.00 0.00 0.00 0.00 0.00 0.00 0.01 0.01 0.01 0.00 0.01 0.01 0.02 0.02 0.04 0.05 0.04 0.07 0.13 0.13 0.17 0.20 0.21 0.22 0.24 0.29 0.29 0.31 0.30 0.26 0.24 0.20 0.15 0.11 0.08 0.05 0.03 0.03 0.03 0.03 0.02 0.01 0.00 0.01 0.01 0.02 0.03 0.05 0.06
0.00 0.00 0.00 0.01 0.00 0.01 0.01 0.01 0.00 0.00 0.01 0.01 0.02 0.03 0.04 0.04 0.05 0.07 0.12 0.17 0.18 0.17 0.20 0.23 0.23 0.26 0.26 0.23 0.26 0.27 0.23 0.19 0.14 0.09 0.07 0.05 0.03 0.02 0.02 0.02 0.02 0.02 0.01 0.00 0.01 0.01 0.03 0.05 0.06
0.00 0.00 0.00 0.01 0.01 0.01 0.01 0.01 0.01 0.00 0.01 0.01 0.02 0.03 0.05 0.05 0.07 0.08 0.10 0.15 0.17 0.14 0.17 0.22 0.21 0.23 0.25 0.22 0.20 0.20 0.21 0.18 0.16 0.11 0.09 0.06 0.03 0.02 0.01 0.01 0.01 0.01 0.00 0.01 0.01 0.01 0.01 0.03 0.05
0.01 0.01 0.00 0.00 0.01 0.01 0.01 0.01 0.01 0.01 0.00 0.01 0.02 0.02 0.04 0.05 0.08 0.09 0.09 0.11 0.15 0.14 0.14 0.21 0.22 0.19 0.21 0.21 0.20 0.17 0.17 0.14 0.11 0.09 0.09 0.09 0.05 0.02 0.01 0.01 0.00 0.00 0.01 0.01 0.00 0.01 0.01 0.01 0.02
0.01 0.01 0.01 0.00 0.00 0.01 0.01 0.01 0.01 0.01 0.01 0.02 0.01 0.02 0.03 0.04 0.06 0.09 0.10 0.11 0.12 0.14 0.14 0.17 0.21 0.20 0.18 0.18 0.19 0.17 0.15 0.14 0.12 0.09 0.09 0.09 0.06 0.03 0.01 0.01 0.00 0.00 0.00 0.01 0.01 0.01 0.01 0.01 0.01
0.00 0.01 0.01 0.01 0.01 0.01 0.01 0.01 0.01 0.01 0.01 0.02 0.01 0.02 0.03 0.02 0.04 0.07 0.10 0.13 0.15 0.15 0.14 0.16 0.18 0.18 0.16 0.14 0.15 0.16 0.14 0.13 0.13 0.13 0.10 0.09 0.07 0.04 0.01 0.01 0.00 0.00 0.00 0.00 0.01 0.00 0.01 0.01 0.01
0.00 0.00 0.00 0.01 0.02 0.01 0.01 0.02 0.02 0.01 0.01 0.02 0.02 0.02 0.02 0.02 0.03 0.04 0.07 0.12 0.16 0.15 0.14 0.15 0.16 0.14 0.13 0.13 0.12 0.10 0.10 0.10 0.10 0.10 0.09 0.08 0.06 0.04 0.02 0.01 0.01 0.01 0.01 0.01 0.01 0.01 0.01 0.01 0.01
0.00 0.00 0.00 0.01 0.02 0.02 0.02 0.03 0.03 0.02 0.02 0.02 0.02 0.02 0.02 0.03 0.03 0.02 0.04 0.08 0.12 0.11 0.11 0.13 0.12 0.10 0.09 0.11 0.14 0.08 0.07 0.08 0.08 0.08 0.07 0.06 0.05 0.04 0.02 0.01 0.01 0.01 0.01 0.01 0.01 0.02 0.01 0.01 0.01
0.00 0.00 0.00 0.01 0.01 0.02 0.01 0.02 0.03 0.02 0.02 0.01 0.01 0.02 0.04 0.03 0.02 0.02 0.03 0.06 0.08 0.08 0.09 0.11 0.09 0.06 0.05 0.05 0.09 0.09 0.06 0.06 0.06 0.08 0.07 0.06 0.06 0.05 0.03 0.01 0.01 0.00 0.01 0.01 0.01 0.01 0.01 0.01 0.01
0.00 0.00 0.01 0.01 0.02 0.01 0.01 0.01 0.02 0.02 0.02 0.01 0.01 0.02 0.02 0.02 0.01 0.02 0.02 0.05 0.05 0.05 0.06 0.08 0.06 0.04 0.02 0.02 0.03 0.06 0.06 0.04 0.04 0.04 0.05 0.06 0.06 0.05 0.04 0.03 0.01 0.01 0.01 0.00 0.00 0.00 0.01 0.01 0.01
0.00 0.00 0.01 0.01 0.02 0.01 0.01 0.01 0.02 0.01 0.01 0.01 0.01 0.01 0.01 0.01 0.01 0.01 0.01 0.02 0.03 0.03 0.05 0.06 0.05 0.03 0.02 0.01 0.02 0.03 0.05 0.04 0.03 0.03 0.03 0.04 0.04 0.03 0.03 0.03 0.03 0.02 0.02 0.01 0.01 0.00 0.00 0.00 0.00
0.00 0.00 0.00 0.01 0.01 0.01 0.01 0.01 0.01 0.00 0.00 0.01 0.01 0.01 0.01 0.01 0.02 0.01 0.01 0.01 0.02 0.02 0.04 0.04 0.04 0.04 0.03 0.01 0.02 0.03 0.04 0.05 0.04 0.03 0.03 0.02 0.02 0.02 0.02 0.02 0.02 0.02 0.02 0.02 0.01 0.01 0.01 0.01 0.00
0.00 0.00 0.00 0.01 0.01 0.01 0.00 0.01 0.00 0.00 0.00 0.01 0.01 0.01 0.01 0.01 0.01 0.02 0.01 0.01 0.02 0.02 0.02 0.02 0.03 0.04 0.04 0.02 0.02 0.03 0.04 0.05 0.06 0.05 0.04 0.03 0.02 0.02 0.01 0.01 0.01 0.02 0.02 0.02 0.01 0.01 0.01 0.01 0.01
0.00 0.00 0.00 0.00 0.00 0.01 0.01 0.01 0.00 0.00 0.01 0.02 0.02 0.01 0.01 0.00 0.01 0.01 0.01 0.02 0.02 0.03 0.03 0.01 0.03 0.04 0.03 0.02 0.02 0.02 0.03 0.04 0.05 0.05 0.04 0.04 0.03 0.02 0.01 0.01 0.01 0.01 0.01 0.01 0.01 0.01 0.01 0.01 0.01
0.00 0.00 0.00 0.01 0.00 0.00 0.00 0.01 0.00 0.00 0.00 0.02 0.02 0.01 0.01 0.01 0.01 0.01 0.01 0.01 0.01 0.02 0.03 0.02 0.03 0.04 0.04 0.02 0.02 0.01 0.01 0.02 0.03 0.04 0.04 0.04 0.03 0.03 0.02 0.02 0.01 0.01 0.01 0.01 0.00 0.00 0.00 0.00 0.00
MSLP
1015.66 1015.39 1015.22 1015.16 1015.16 1015.19 1015.20 1015.19 1015.13 1015.04 1014.92 1014.79 1014.64 1014.46 1014.22 1013.91 1013.50 1013.00 1012.46 1011.93 1011.50 1011.22 1011.15 1011.32 1011.68 1012.19 1012.75 1013.28 1013.72 1014.04 1014.24 1014.35 1014.44 1014.54 1014.70 1014.93 1015.20 1015.49 1015.75 1015.94 1016.06 1016.13 1016.16 1016.20 1016.28 1016.41 1016.59 1016.78 1016.97
1015.80 1015.58 1015.48 1015.49 1015.57 1015.67 1015.75 1015.78 1015.74 1015.64 1015.49 1015.31 1015.11 1014.88 1014.59 1014.23 1013.78 1013.24 1012.66 1012.10 1011.62 1011.30 1011.19 1011.31 1011.64 1012.13 1012.69 1013.23 1013.69 1014.04 1014.27 1014.41 1014.52 1014.63 1014.80 1015.02 1015.28 1015.55 1015.80 1015.99 1016.12 1016.20 1016.25 1016.31 1016.40 1016.55 1016.73 1016.93 1017.10
1016.06 1015.90 1015.87 1015.96 1016.11 1016.27 1016.40 1016.45 1016.40 1016.27 1016.07 1015.82 1015.54 1015.23 1014.88 1014.46 1013.96 1013.40 1012.80 1012.22 1011.72 1011.37 1011.23 1011.32 1011.63 1012.09 1012.63 1013.17 1013.65 1014.01 1014.27 1014.44 1014.56 1014.69 1014.85 1015.06 1015.31 1015.57 1015.81 1016.01 1016.16 1016.26 1016.34 1016.43 1016.55 1016.71 1016.89 1017.08 1017.24
1016.41 1016.32 1016.37 1016.52 1016.73 1016.93 1017.07 1017.11 1017.03 1016.85 1016.57 1016.24 1015.87 1015.47 1015.04 1014.57 1014.05 1013.47 1012.87 1012.30 1011.81 1011.46 1011.31 1011.38 1011.66 1012.09 1012.60 1013.13 1013.60 1013.98 1014.25 1014.43 1014.57 1014.71 1014.87 1015.07 1015.32 1015.58 1015.83 1016.04 1016.21 1016.34 1016.46 1016.58 1016.73 1016.90 1017.09 1017.26 1017.40
1016.83 1016.81 1016.92 1017.12 1017.35 1017.56 1017.69 1017.70 1017.56 1017.30 1016.93 1016.51 1016.05 1015.58 1015.09 1014.58 1014.05 1013.49 1012.92 1012.38 1011.91 1011.59 1011.44 1011.50 1011.75 1012.14 1012.62 1013.12 1013.57 1013.94 1014.22 1014.42 1014.57 1014.72 1014.89 1015.10 1015.34 1015.61 1015.86 1016.10 1016.30 1016.48 1016.63 1016.79 1016.96 1017.14 1017.33 1017.49 1017.60
1017.27 1017.30 1017.45 1017.67 1017.91 1018.10 1018.18 1018.13 1017.92 1017.58 1017.13 1016.63 1016.10 1015.57 1015.05 1014.53 1014.01 1013.49 1012.98 1012.49 1012.08 1011.79 1011.65 1011.69 1011.90 1012.25 1012.68 1013.13 1013.56 1013.91 1014.20 1014.41 1014.59 1014.75 1014.94 1015.15 1015.41 1015.68 1015.96 1016.22 1016.46 1016.67 1016.86 1017.05 1017.23 1017.42 1017.59 1017.73 1017.83
1017.70 1017.77 1017.93 1018.14 1018.35 1018.49 1018.51 1018.38 1018.10 1017.69 1017.18 1016.61 1016.04 1015.49 1014.97 1014.47 1014.00 1013.54 1013.10 1012.68 1012.32 1012.06 1011.92 1011.93 1012.09 1012.38 1012.74 1013.14 1013.53 1013.88 1014.17 1014.41 1014.61 1014.81 1015.02 1015.27 1015.53 1015.82 1016.11 1016.39 1016.65 1016.89 1017.11 1017.32 1017.51 1017.70 1017.86 1017.98 1018.05
1018.12 1018.20 1018.34 1018.51 1018.65 1018.72 1018.67 1018.47 1018.12 1017.65 1017.10 1016.50 1015.92 1015.38 1014.89 1014.45 1014.04 1013.66 1013.29 1012.94 1012.62 1012.37 1012.22 1012.18 1012.27 1012.48 1012.77 1013.11 1013.46 1013.80 1014.11 1014.39 1014.64 1014.88 1015.14 1015.41 1015.70 1016.00 1016.30 1016.59 1016.86 1017.12 1017.35 1017.56 1017.76 1017.94 1018.08 1018.19 1018.25
1018.53 1018.58 1018.66 1018.77 1018.83 1018.82 1018.68 1018.41 1018.01 1017.50 1016.93 1016.34 1015.77 1015.27 1014.83 1014.45 1014.12 1013.82 1013.51 1013.21 1012.93 1012.67 1012.49 1012.38 1012.39 1012.50 1012.71 1012.99 1013.31 1013.65 1013.99 1014.32 1014.64 1014.94 1015.25 1015.56 1015.87 1016.18 1016.48 1016.77 1017.04 1017.30 1017.53 1017.75 1017.94 1018.11 1018.24 1018.34 1018.40
1018.92 1018.91 1018.93 1018.94 1018.91 1018.80 1018.59 1018.25 1017.80 1017.27 1016.69 1016.12 1015.59 1015.13 1014.75 1014.45 1014.19 1013.95 1013.70 1013.44 1013.16 1012.89 1012.65 1012.47 1012.39 1012.41 1012.53 1012.76 1013.06 1013.41 1013.79 1014.19 1014.58 1014.96 1015.32 1015.67 1016.01 1016.32 1016.62 1016.90 1017.16 1017.41 1017.64 1017.85 1018.05 1018.22 1018.35 1018.46 1018.52
1019.30 1019.21 1019.14 1019.05 1018.91 1018.71 1018.42 1018.02 1017.53 1016.98 1016.41 1015.85 1015.35 1014.94 1014.61 1014.36 1014.16 1013.97 1013.77 1013.53 1013.26 1012.96 1012.67 1012.42 1012.25 1012.19 1012.25 1012.43 1012.72 1013.09 1013.53 1013.99 1014.47 1014.92 1015.35 1015.74 1016.09 1016.40 1016.69 1016.95 1017.20 1017.43 1017.66 1017.88 1018.09 1018.27 1018.43 1018.55 1018.65
1019.63 1019.46 1019.29 1019.10 1018.86 1018.57 1018.19 1017.74 1017.22 1016.65 1016.07 1015.52 1015.04 1014.64 1014.34 1014.13 1013.96 1013.81 1013.64 1013.42 1013.16 1012.85 1012.53 1012.23 1012.00 1011.88 1011.90 1012.06 1012.35 1012.76 1013.25 1013.78 1014.33 1014.85 1015.33 1015.75 1016.11 1016.42 1016.68 1016.93 1017.16 1017.40 1017.63 1017.87 1018.10 1018.32 1018.52 1018.69 1018.83
1019.90 1019.64 1019.37 1019.08 1018.75 1018.38 1017.94 1017.43 1016.87 1016.28 1015.68 1015.12 1014.63 1014.23 1013.94 1013.73 1013.58 1013.45 1013.30 1013.12 1012.87 1012.58 1012.26 1011.95 1011.71 1011.57 1011.58 1011.74 1012.05 1012.50 1013.04 1013.63 1014.23 1014.80 1015.31 1015.74 1016.10 1016.39 1016.64 1016.87 1017.09 1017.33 1017.58 1017.86 1018.13 1018.40 1018.66 1018.88 1019.08
1020.05 1019.71 1019.36 1018.99 1018.59 1018.15 1017.66 1017.12 1016.52 1015.90 1015.27 1014.68 1014.16 1013.73 1013.41 1013.18 1013.03 1012.91 1012.80 1012.65 1012.45 1012.21 1011.94 1011.67 1011.47 1011.36 1011.40 1011.59 1011.93 1012.41 1012.99 1013.62 1014.25 1014.84 1015.35 1015.78 1016.12 1016.39 1016.61 1016.82 1017.03 1017.28 1017.56 1017.87 1018.21 1018.54 1018.86 1019.15 1019.41
1020.06 1019.66 1019.24 1018.81 1018.37 1017.89 1017.37 1016.80 1016.19 1015.54 1014.88 1014.25 1013.68 1013.21 1012.84 1012.58 1012.42 1012.31 1012.23 1012.14 1012.02 1011.86 1011.67 1011.50 1011.38 1011.34 1011.44 1011.68 1012.07 1012.58 1013.18 1013.83 1014.46 1015.03 1015.52 1015.92 1016.22 1016.45 1016.64 1016.83 1017.03 1017.29 1017.59 1017.94 1018.33 1018.73 1019.11 1019.47 1019.78
1019.93 1019.48 1019.02 1018.56 1018.10 1017.61 1017.09 1016.53 1015.91 1015.24 1014.56 1013.90 1013.28 1012.76 1012.35 1012.05 1011.87 1011.78 1011.73 1011.70 1011.67 1011.62 1011.55 1011.50 1011.49 1011.57 1011.75 1012.06 1012.49 1013.03 1013.63 1014.26 1014.86 1015.40 1015.84 1016.18 1016.43 1016.61 1016.76 1016.92 1017.11 1017.36 1017.69 1018.07 1018.49 1018.93 1019.37 1019.77 1020.13
1019.67 1019.19 1018.72 1018.26 1017.80 1017.34 1016.85 1016.30 1015.71 1015.06 1014.37 1013.69 1013.05 1012.48 1012.03 1011.71 1011.51 1011.42 1011.41 1011.45 1011.50 1011.56 1011.62 1011.70 1011.82 1012.01 1012.29 1012.67 1013.14 1013.70 1014.29 1014.89 1015.44 1015.92 1016.29 1016.57 1016.76 1016.88 1016.99 1017.11 1017.28 1017.52 1017.84 1018.22 1018.66 1019.12 1019.57 1020.00 1020.38
1019.33 1018.84 1018.38 1017.94 1017.52 1017.10 1016.66 1016.16 1015.61 1014.99 1014.33 1013.66 1013.01 1012.43 1011.96 1011.62 1011.41 1011.33 1011.34 1011.42 1011.55 1011.71 1011.88 1012.07 1012.31 1012.60 1012.97 1013.41 1013.93 1014.49 1015.06 1015.62 1016.12 1016.53 1016.84 1017.04 1017.17 1017.24 1017.30 1017.38 1017.52 1017.73 1018.03 1018.39 1018.81 1019.25 1019.70 1020.11 1020.49
1018.99 1018.51 1018.07 1017.66 1017.29 1016.92 1016.54 1016.11 1015.62 1015.06 1014.44 1013.80 1013.17 1012.61 1012.14 1011.79 1011.58 1011.49 1011.52 1011.62 1011.79 1012.01 1012.25 1012.53 1012.85 1013.23 1013.66 1014.16 1014.70 1015.26 1015.82 1016.34 1016.78 1017.13 1017.38 1017.54 1017.62 1017.65 1017.67 1017.71 1017.82 1017.99 1018.24 1018.56 1018.93 1019.33 1019.73 1020.10 1020.44
1018.71 1018.25 1017.84 1017.48 1017.15 1016.84 1016.52 1016.15 1015.71 1015.21 1014.65 1014.06 1013.48 1012.95 1012.50 1012.17 1011.95 1011.86 1011.88 1011.98 1012.16 1012.39 1012.66 1012.97 1013.34 1013.76 1014.24 1014.76 1015.32 1015.89 1016.43 1016.92 1017.33 1017.65 1017.86 1017.98 1018.03 1018.04 1018.04 1018.07 1018.14 1018.28 1018.48 1018.74 1019.04 1019.36 1019.69 1020.00 1020.29
1018.57 1018.14 1017.75 1017.43 1017.14 1016.86 1016.58 1016.25 1015.86 1015.40 1014.89 1014.36 1013.83 1013.35 1012.94 1012.63 1012.43 1012.33 1012.33 1012.41 1012.55 1012.76 1013.01 1013.32 1013.69 1014.12 1014.61 1015.15 1015.72 1016.28 1016.82 1017.30 1017.70 1018.00 1018.20 1018.32 1018.38 1018.39 1018.39 1018.42 1018.47 1018.58 1018.73 1018.93 1019.16 1019.40 1019.65 1019.88 1020.10
1018.59 1018.19 1017.84 1017.54 1017.26 1017.00 1016.72 1016.39 1016.01 1015.58 1015.10 1014.61 1014.14 1013.71 1013.35 1013.07 1012.88 1012.78 1012.76 1012.80 1012.90 1013.05 1013.26 1013.53 1013.87 1014.29 1014.77 1015.30 1015.87 1016.44 1016.98 1017.46 1017.86 1018.17 1018.39 1018.54 1018.62 1018.66 1018.69 1018.73 1018.80 1018.89 1019.02 1019.16 1019.32 1019.49 1019.66 1019.82 1019.97
1018.78 1018.41 1018.09 1017.80 1017.52 1017.24 1016.93 1016.57 1016.16 1015.71 1015.24 1014.77 1014.33 1013.94 1013.62 1013.39 1013.23 1013.14 1013.10 1013.11 1013.16 1013.26 1013.41 1013.63 1013.93 1014.31 1014.77 1015.29 1015.85 1016.42 1016.97 1017.46 1017.87 1018.21 1018.46 1018.63 1018.76 1018.85 1018.93 1019.01 1019.10 1019.20 1019.32 1019.44 1019.55 1019.67 1019.78 1019.87 1019.97
1019.10 1018.77 1018.47 1018.18 1017.89 1017.56 1017.19 1016.77 1016.30 1015.80 1015.30 1014.81 1014.38 1014.03 1013.75 1013.55 1013.43 1013.36 1013.32 1013.32 1013.34 1013.40 1013.51 1013.68 1013.94 1014.29 1014.72 1015.22 1015.77 1016.33 1016.88 1017.38 1017.80 1018.16 1018.43 1018.65 1018.82 1018.96 1019.09 1019.22 1019.35 1019.49 1019.62 1019.73 1019.84 1019.92 1020.00 1020.06 1020.11
1019.51 1019.22 1018.94 1018.66 1018.33 1017.96 1017.51 1017.00 1016.45 1015.87 1015.30 1014.78 1014.33 1013.98 1013.74 1013.58 1013.50 1013.46 1013.45 1013.46 1013.49 1013.53 1013.62 1013.76 1013.99 1014.31 1014.72 1015.20 1015.73 1016.28 1016.82 1017.31 1017.73 1018.09 1018.38 1018.62 1018.82 1019.00 1019.18 1019.36 1019.54 1019.71 1019.87 1020.02 1020.13 1020.22 1020.28 1020.33 1020.37
1019.93 1019.68 1019.44 1019.15 1018.81 1018.38 1017.86 1017.27 1016.61 1015.94 1015.29 1014.72 1014.24 1013.88 1013.65 1013.52 1013.48 1013.49 1013.53 1013.57 1013.62 1013.68 1013.77 1013.92 1014.14 1014.45 1014.84 1015.30 1015.81 1016.34 1016.85 1017.31 1017.71 1018.05 1018.33 1018.57 1018.78 1018.98 1019.19 1019.41 1019.63 1019.85 1020.05 1020.23 1020.37 1020.48 1020.56 1020.62 1020.66
1020.30 1020.10 1019.89 1019.61 1019.26 1018.79 1018.21 1017.54 1016.80 1016.04 1015.32 1014.69 1014.17 1013.79 1013.56 1013.45 1013.44 1013.49 1013.58 1013.67 1013.76 1013.86 1013.99 1014.16 1014.39 1014.70 1015.08 1015.53 1016.01 1016.50 1016.97 1017.39 1017.76 1018.05 1018.30 1018.51 1018.71 1018.91 1019.12 1019.36 1019.61 1019.86 1020.10 1020.32 1020.50 1020.65 1020.76 1020.84 1020.91
1020.58 1020.42 1020.23 1019.97 1019.61 1019.13 1018.52 1017.80 1017.01 1016.19 1015.41 1014.72 1014.16 1013.75 1013.51 1013.40 1013.41 1013.50 1013.62 1013.76 1013.90 1014.05 1014.22 1014.42 1014.68 1015.00 1015.38 1015.82 1016.27 1016.72 1017.15 1017.52 1017.83 1018.07 1018.27 1018.44 1018.60 1018.78 1018.98 1019.22 1019.48 1019.75 1020.02 1020.27 1020.49 1020.67 1020.81 1020.93 1021.02
1020.74 1020.59 1020.41 1020.16 1019.81 1019.33 1018.72 1017.99 1017.18 1016.35 1015.54 1014.82 1014.23 1013.80 1013.53 1013.41 1013.41 1013.50 1013.65 1013.82 1014.00 1014.19 1014.39 1014.63 1014.91 1015.25 1015.63 1016.05 1016.48 1016.91 1017.29 1017.61 1017.87 1018.06 1018.21 1018.34 1018.46 1018.61 1018.78 1019.01 1019.26 1019.53 1019.81 1020.08 1020.32 1020.53 1020.70 1020.84 1020.96
1020.75 1020.59 1020.40 1020.15 1019.81 1019.35 1018.76 1018.07 1017.28 1016.47 1015.68 1014.96 1014.36 1013.90 1013.61 1013.46 1013.43 1013.51 1013.64 1013.81 1014.00 1014.21 1014.44 1014.70 1015.00 1015.34 1015.73 1016.14 1016.56 1016.95 1017.31 1017.60 1017.82 1017.99 1018.10 1018.20 1018.29 1018.41 1018.56 1018.76 1019.00 1019.26 1019.54 1019.80 1020.05 1020.27 1020.45 1020.61 1020.75
Thickness
5686 5688 5691 5690 5683 5678 5677 5679 5679 5678 5681 5685 5686 5689 5693 5698 5700 5699 5707 5714 5716 5718 5719 5718 5719 5720 5720 5721 5722 5723 5723 5723 5723 5723 5723 5723 5723 5723 5723 5723 5723 5723 5723 5723 5723 5723 5723 5722 5722
5680 5682 5682 5679 5673 5669 5670 5671 5668 5670 5672 5673 5678 5681 5684 5691 5695 5696 5701 5705 5708 5711 5712 5713 5713 5715 5715 5716 5717 5718 5719 5719 5719 5719 5719 5719 5719 5719 5719 5719 5719 5720 5720 5720 5719 5719 5719 5719 5719
5673 5674 5670 5667 5662 5665 5663 5659 5659 5660 5662 5663 5668 5673 5676 5681 5684 5688 5692 5696 5701 5704 5706 5707 5707 5709 5710 5711 5712 5713 5714 5714 5715 5715 5715 5715 5715 5715 5715 5715 5715 5716 5716 5716 5716 5716 5716 5716 5715
5666 5663 5659 5654 5651 5651 5650 5648 5647 5649 5653 5655 5657 5662 5668 5671 5674 5679 5684 5688 5693 5696 5698 5700 5701 5703 5704 5706 5707 5708 5709 5710 5710 5710 5710 5711 5711 5711 5711 5711 5711 5711 5712 5712 5712 5712 5712 5712 5712
5658 5653 5646 5642 5641 5640 5640 5638 5637 5639 5642 5646 5647 5651 5657 5663 5666 5670 5674 5679 5683 5688 5690 5692 5693 5696 5698 5700 5701 5703 5704 5705 5705 5705 5706 5706 5706 5706 5706 5706 5707 5707 5708 5708 5708 5709 5709 5709 5708
5646 5643 5638 5635 5633 5629 5629 5628 5627 5629 5633 5635 5636 5640 5648 5653 5656 5659 5664 5669 5674 5678 5681 5684 5686 5688 5690 5693 5695 5697 5698 5699 5700 5700 5701 5701 5701 5701 5701 5702 5702 5703 5703 5704 5704 5704 5705 5705 5704
5636 5632 5628 5625 5621 5620 5619 5619 5619 5619 5622 5625 5626 5629 5639 5643 5645 5649 5654 5659 5664 5668 5671 5675 5678 5680 5683 5686 5688 5690 5692 5693 5694 5694 5695 5695 5695 5696 5697 5697 5698 5698 5699 5699 5700 5700 5700 5700 5700
5627 5623 5617 5615 5612 5612 5611 5609 5610 5609 5613 5617 5617 5619 5627 5632 5635 5639 5644 5648 5653 5658 5662 5666 5669 5672 5675 5678 5680 5683 5685 5686 5687 5688 5689 5689 5689 5690 5691 5692 5692 5693 5694 5695 5695 5695 5696 5696 5695
5619 5614 5611 5608 5605 5605 5602 5600 5601 5602 5603 5606 5609 5613 5617 5620 5624 5629 5633 5638 5643 5647 5652 5657 5660 5664 5667 5671 5673 5675 5678 5679 5680 5681 5682 5683 5684 5685 5686 5686 5687 5688 5689 5689 5690 5690 5690 5691 5691
5612 5607 5605 5602 5599 5596 5594 5591 5592 5594 5596 5599 5602 5605 5608 5611 5614 5619 5623 5628 5633 5638 5642 5647 5652 5656 5659 5663 5665 5668 5671 5672 5674 5675 5676 5678 5679 5680 5680 5680 5681 5682 5683 5684 5684 5685 5685 5686 5687
5603 5600 5597 5593 5591 5587 5585 5585 5585 5584 5588 5593 5594 5597 5600 5602 5605 5609 5614 5619 5624 5628 5633 5638 5643 5647 5651 5655 5658 5660 5663 5665 5667 5669 5671 5672 5673 5674 5674 5675 5676 5677 5678 5680 5679 5681 5682 5683 5683
5596 5593 5589 5587 5583 5580 5579 5579 5579 5579 5584 5588 5588 5589 5592 5595 5598 5602 5606 5611 5616 5620 5624 5629 5634 5638 5642 5647 5651 5652 5655 5658 5660 5662 5664 5667 5668 5669 5669 5671 5672 5673 5674 5675 5676 5677 5677 5677 5677
5592 5588 5584 5582 5578 5575 5574 5573 5573 5577 5581 5582 5582 5582 5586 5589 5592 5596 5600 5604 5608 5612 5616 5619 5624 5629 5634 5639 5643 5644 5646 5651 5653 5654 5657 5660 5662 5663 5664 5665 5665 5667 5668 5669 5670 5672 5672 5672 5672
5588 5584 5582 5579 5576 5573 5570 5572 5569 5576 5576 5575 5576 5577 5580 5583 5586 5589 5593 5597 5600 5605 5609 5613 5617 5622 5626 5631 5635 5636 5638 5642 5646 5647 5649 5652 5654 5656 5658 5659 5659 5660 5662 5663 5664 5666 5666 5667 5666
5582 5580 5581 5578 5573 5570 5566 5570 5571 5573 5570 5571 5572 5574 5575 5578 5581 5583 5587 5590 5594 5597 5601 5606 5610 5614 5619 5623 5627 5628 5631 5633 5637 5640 5642 5644 5647 5649 5652 5653 5653 5654 5655 5657 5658 5659 5660 5660 5659
5582 5580 5579 5577 5571 5566 5560 5569 5573 5570 5567 5568 5569 5570 5571 5573 5576 5579 5581 5584 5588 5591 5594 5599 5604 5608 5611 5615 5618 5621 5624 5626 5630 5633 5636 5637 5639 5642 5645 5647 5647 5648 5649 5650 5652 5653 5653 5653 5652
5583 5578 5574 5574 5569 5563 5559 5565 5570 5567 5564 5565 5566 5567 5568 5569 5570 5573 5575 5579 5581 5585 5589 5593 5598 5601 5604 5607 5610 5615 5616 5619 5623 5627 5629 5631 5633 5635 5638 5640 5641 5641 5642 5643 5644 5645 5646 5645 5644
5579 5575 5571 5569 5568 5561 5559 5563 5568 5566 5563 5563 5563 5564 5565 5565 5565 5566 5569 5572 5575 5579 5582 5587 5591 5595 5598 5601 5604 5606 5608 5612 5615 5620 5622 5624 5626 5628 5631 5633 5634 5635 5636 5636 5637 5637 5637 5637 5636
5571 5568 5568 5569 5564 5558 5561 5563 5567 5566 5563 5562 5561 5560 5561 5562 5562 5561 5562 5565 5569 5572 5575 5580 5584 5589 5592 5595 5598 5600 5602 5605 5608 5612 5614 5617 5619 5621 5623 5625 5626 5627 5629 5630 5630 5630 5629 5628 5628
5568 5567 5569 5568 5562 5557 5560 5564 5568 5565 5562 5560 5560 5559 5559 5558 5559 5558 5558 5560 5563 5566 5569 5575 5578 5581 5586 5589 5593 5595 5597 5599 5602 5605 5607 5610 5612 5614 5616 5618 5619 5620 5621 5622 5622 5622 5622 5620 5620
5571 5567 5565 5562 5561 5559 5558 5569 5569 5565 5562 5560 5559 5558 5558 5557 5557 5557 5557 5557 5560 5562 5565 5569 5572 5575 5578 5582 5585 5588 5589 5592 5595 5598 5600 5602 5605 5607 5609 5610 5612 5613 5614 5615 5614 5614 5614 5613 5611
5574 5568 5561 5557 5558 5561 5555 5560 5570 5564 5562 5560 5559 5558 5557 5557 5557 5556 5556 5556 5557 5558 5560 5563 5567 5571 5573 5576 5581 5585 5587 5589 5590 5592 5593 5595 5597 5599 5601 5602 5604 5605 5606 5606 5606 5605 5606 5605 5604
5570 5564 5559 5557 5557 5556 5556 5553 5567 5564 5561 5561 5559 5557 5555 5555 5556 5556 5555 5555 5555 5556 5558 5561 5564 5567 5569 5572 5575 5579 5581 5583 5584 5585 5586 5588 5589 5591 5593 5594 5595 5596 5596 5597 5597 5596 5596 5596 5596
5564 5563 5562 5558 5558 5559 5555 5551 5564 5563 5559 5559 5558 5556 5554 5554 5554 5555 5554 5553 5553 5553 5556 5559 5560 5564 5566 5568 5570 5573 5576 5577 5578 5579 5580 5582 5583 5584 5584 5586 5586 5586 5587 5588 5588 5587 5586 5586 5586
5563 5567 5568 5567 5566 5567 5554 5551 5560 5562 5558 5555 5555 5554 5554 5553 5552 5553 5553 5553 5553 5552 5553 5556 5558 5561 5562 5564 5566 5569 5570 5571 5573 5574 5575 5577 5578 5578 5577 5577 5577 5577 5577 5578 5578 5577 5577 5576 5575
5561 5563 5560 5560 5564 5568 5557 5557 5566 5561 5557 5554 5552 5552 5552 5553 5552 5552 5552 5551 5551 5551 5551 5553 5557 5558 5559 5561 5563 5564 5565 5567 5568 5569 5571 5572 5572 5571 5570 5569 5569 5569 5568 5568 5568 5567 5566 5565 5565
5560 5557 5554 5553 5549 5551 5566 5566 5566 5560 5556 5553 5551 5550 5549 5550 5550 5550 5550 5550 5550 5550 5550 5551 5554 5554 5555 5556 5558 5559 5560 5561 5563 5564 5565 5566 5565 5564 5562 5562 5561 5560 5560 5559 5559 5558 5557 5555 5554
5552 5552 5549 5548 5551 5558 5567 5565 5564 5559 5556 5553 5551 5549 5548 5548 5548 5548 5548 5548 5548 5548 5548 5548 5550 5550 5551 5552 5553 5554 5555 5556 5557 5558 5558 5559 5558 5557 5556 5555 5553 5552 5551 5550 5549 5549 5547 5545 5544
5547 5545 5546 5547 5548 5553 5558 5567 5563 5557 5552 5549 5548 5547 5546 5546 5545 5546 5546 5546 5545 5545 5545 5545 5546 5546 5547 5547 5548 5548 5548 5549 5549 5550 5551 5551 5550 5550 5549 5547 5545 5544 5543 5541 5540 5538 5537 5535 5533
5546 5548 5546 5546 5544 5543 5550 5560 5557 5552 5547 5545 5545 5543 5543 5543 5543 5543 5542 5542 5542 5542 5542 5541 5541 5541 5542 5542 5542 5542 5542 5542 5542 5543 5544 5543 5543 5542 5541 5539 5537 5536 5534 5532 5531 5529 5527 5525 5523